Showing default

SIT-2086, 61764

Orbit data source: Space-Track

SIT-2086, 61764 is a Commonwealth of Independent States-origin payload satellite in SSO that was launched on Mon, 04 Nov 2024 UTC via a SOYUZ-2-1B launch vehicle from the Vostochny Cosmodrome (VOSTO). Payload-class satellites include a variety of spacecraft equipped with specific instruments for various scientific and technological missions. These include communications satellites like Starlink; space stations such as the ISS; scientific satellites like the Hubble; Earth observation satellites from companies like Planet Labs, Umbra, and HawkEye 360; GPS; miniature CubeSats for education and research; and military/defense satellites.

Loading next visibility...
Identifier
61764, 2024-199AF
Orbit
SSO
Country
Flag of CISCIS
Related business
Manufacturer
Sputniks
Mission
Operational Amateur Technology
Bus & Motor
CUBESAT 3U, Unknown motor
Mass
3 kg wet, 3 kg dry
Launch date (UTC)
2024-11-04 (1 year ago)
Launch vehicle
SOYUZ-2-1B
Launch site
Vostochny Cosmodrome (VOSTO)
Object type
Payload
Rocket body
Debris
Shape & HBR
Box, 0.1 m
Radar Cross Section
0.035 m², Small (<0.1 m²)

Expand to show TLE details & history
Last TLE update: 9 hours ago

TLE from 9 hours ago
0 SIT-2086
1 61764U 24199AF  26061.93215262  .00028712  00000-0  56416-3 0  9999
2 61764  97.3138 296.8596 0006331 301.6593  58.4039 15.47240805117972
Epoch: 2026-03-02T22:22Z
TLE epoch observation values (Epoch: 2026-03-02T22:22:17.986Z)
Latitude
-0.00003°
Longitude
160.56619°
Altitude
425.677 km
Speed
7.657 km/s
True Right ascension
19h 47m 26s
True Declination
0° 00' 00"
Sunlit
Object was in daylight at epoch
Visualization orbit readout
Latitude
Unknown
Longitude
Unknown
Altitude
Unknown
Speed
Unknown
Apparent Right ascension
Unknown
Apparent Declination
Unknown
Sunlit
N/A
Visualization observer readout
Local Sidereal Time
10:46:24
Azimuth
Unknown
Elevation
Unknown
Doppler factor
Unknown
Orbital elements
Apogee altitude
426.032 km
Perigee altitude
417.423 km
Semi-major axis
6,799.865 km
Eccentricity
0.00063
Inclination
97.3138°
RAAN
296.8596°
Arg. of periapsis
301.6593°
True anomaly
58.46572°
Mean anomaly
58.4039°
Eccentric anomaly
58.43481°
Mean motion
3.87073 °/min
Orbital period
93.01 mins
BSTAR
0.00056416
Loading maneuver chart data...
Computing Atmospheric mass density...
Loading historical data...
Loading historical data...
Loading historical data...
Loading historical data...
Loading historical data...
Loading historical data...
Loading historical data...

Documentation

Showing up to 5 results
|